Flag for Germany Weather past 2 weeks in Offenburg, Baden-Württemberg, Germany

Now
36 °F

Overcast.


Feels Like: 31 °F
Forecast: 32 / 35 °F
Wind: 6 mph from South

Location: Lahr

Current Time: Feb 1, 2015 at 12:24:03 AM

Latest Report: Feb 1, 2015 at 12:00 AM


Visibility: 17 mi

Pressure: 29.18 "Hg

Humidity: 84%

Dew point: 31 °F

Location of OffenburgLocation

Historic Weather in Offenburg — Graph

°F

Offenburg temperature yesterday

Maximum temperature yesterday: 41 °F (at 1:00 PM)
Minimum temperature yesterday: 33 °F (at 12:00 AM)
Average temperature yesterday: 36 °F

Past Weeks' High & Low Weather Summary

 TemperatureHumidityPressure
High43 °F (Jan 16, 11:00 PM)100% (Jan 18, 5:00 AM)30.50 "Hg (Jan 18, 5:00 AM)
Low27 °F (Jan 18, 8:00 AM)66% (Jan 31, 1:00 PM)28.79 "Hg (Jan 30, 1:00 AM)
Average36 °F89%29.91 "Hg
* Reported Jan 16 11:00 PM — Jan 31 11:00 PM, Offenburg, Weather by CustomWeather, © 2014

Note: Actual official high and low records may vary slightly from our data, if they occured in-between our weather recording intervals... More about our weather records

Advertising

Offenburg weather history for previous 24 hours

 ConditionsComfort  
Time TempWeatherWind HumidityBarometerVisibility
11:00 PM
Jan 31
35 °FOvercast.5 mph85%29.21 "Hg17 mi
10:00 PM35 °FPassing clouds.5 mph91%29.21 "Hg8 mi
9:00 PM35 °FPassing clouds.2 mph92%29.21 "Hg16 mi
8:00 PM36 °FRain. Overcast.3 mph87%29.18 "Hg14 mi
7:00 PM35 °FLow clouds.3 mph91%29.18 "Hg11 mi
6:00 PM37 °FLow clouds.2 mph90%29.15 "Hg16 mi
5:00 PM37 °FLow clouds.5 mph90%29.12 "Hg12 mi
4:00 PM36 °FRain. Low clouds.3 mph94%29.12 "Hg9 mi
3:00 PM35 °FLight rain. Low clouds.3 mph94%29.12 "Hg9 mi
2:00 PM38 °FRain. Overcast.6 mph78%29.09 "Hg10 mi
1:00 PM41 °FOvercast.6 mph66%29.09 "Hg31 mi
12:00 PM40 °FOvercast.6 mph69%29.09 "Hg31 mi
11:00 AM38 °FOvercast.6 mph76%29.09 "Hg34 mi
10:00 AM36 °FOvercast.3 mph76%29.09 "Hg31 mi
9:00 AM35 °FOvercast.6 mph80%29.09 "Hg34 mi
8:00 AM35 °FOvercast.5 mph84%29.09 "Hg34 mi
7:00 AM36 °FOvercast.5 mph83%29.06 "Hg28 mi
6:00 AM35 °FOvercast.3 mph85%29.06 "Hg28 mi
5:00 AM35 °FOvercast.3 mph84%29.09 "Hg25 mi
4:00 AM35 °FOvercast.3 mph88%29.06 "Hg22 mi
3:00 AM35 °FOvercast.2 mph91%29.06 "Hg18 mi
2:00 AM35 °FLow clouds.5 mph90%29.03 "Hg25 mi
1:00 AM34 °FFog.2 mph98%29.03 "Hg4 mi
12:00 AM33 °FOvercast.1 mph98%29.03 "Hg4 mi
Weather by CustomWeather, © 2014

See weather overviewHow to use our weather pages